Terug naar catalogus

FENGYUN 1C DEB

ActiefPO
NORAD 29982·DEBRIS·🇨🇳 China

Gelanceerd May 10, 1999 vanaf Taiyuan Satellite Launch Center

Loading…

Volgende Passages (komende 24 uur)

TLE

VersSource: Space-Track

Epoch: Sep 14, 2026, 14:56 UTC

1 29982U 99025LG  26257.62239391  .00001652  00000-0  26661-3 0  9990
2 29982  99.3832 124.4826 0118921 166.5057 213.3169 14.68568441 43318

Volg FENGYUN 1C DEB in realtime met AllMySat

Download on the App Store